User: anonymous   Login
Location: Unspecified
(0.0000°N, 0.0000°E)
Time: 00:16:30
(UTC+00:00)
Language:

Meteosat 1 - Orbit

View from above orbital plane
View from above orbital plane
View from above satellite
View from above satellite

Ground track
Ground track

The orbit data is extracted from the following two-line orbital elements,

1 10489U 77108A   17328.46116985 -.00000364  00000-0  00000+0 0  9999
2 10489  12.1425 318.8135 0014576 349.9028  38.8345  1.00340539105907
Epoch (UTC): 24 November 2017 11:04:05
Eccentricity: 0.0014576
inclination: 12.1425°
perigee height: 35705 km
apogee height: 35828 km
right ascension of ascending node: 318.8135°
argument of perigee: 349.9028°
revolutions per day: 1.00340539
mean anomaly at epoch: 38.8345°
orbit number at epoch: 10590

The dashed part of the orbit path shows where the satellite is in the earth's shadow,  

DLR